Aérodrome :
LOGIN :

S'inscrire | Disclaimer

   EN    FR    IT 

 










Légende :    VFR   VFR Marginal   IFR   IFR Intensif   IFR Très Intensif
Visi : 
Plafond : 
>= 8 km
>= 3000ft
5 à 8 km
1000 à 3000 ft
1500m à 5 km
500 à 1000 ft
800 à 1500m
200 à 500 ft
< 800m
< 200 ft
Symboles :   Orages  Brouillard  Fortes neiges  Fortes précipitations  Vent > 20 kt
SIGMETs :   Divers  Orages  Givrage  Turbulence  Onde Orograph.  Cendres Volcan.







- Altitude de l'aérodrome : 1708 ft
- Code IATA : SJJ


LQSA - Sarajevo

DERNIER METAR :
  • 141230Z VRB02KT 9999 BKN045 05/04 Q1011 NOSIG

METARs EXPIRÉS :
  • 141200Z VRB02KT 9999 BKN050 05/04 Q1011 NOSIG
  • 141130Z VRB02KT 9999 FEW040 BKN050 05/04 Q1011 NOSIG
  • 141100Z VRB02KT 9999 BKN050 04/04 Q1012 NOSIG
  • 141030Z VRB01KT 9999 BKN050 04/04 Q1012 NOSIG
  • 141000Z VRB02KT 9999 BKN050 03/03 Q1012 NOSIG

TAF COR TAF LQSA
Valide du 14 à 12h jusqu'au 15 à 12h UTC


141100Z 1412/1512 VRB04KT 9999 BKN050 TX14/1507Z TN05/1412Z
TEMPO 1415/1419 14010KT
BECMG 1418/1421 14012G25KT
PROB30
TEMPO 1503/1512 18020G35KT
Pas de NOTAMs connus pour ce terrain.



MET'MAP, la Météo Aéronautique d'un coup d'oeil ! - Copyright ORBIFLY Décembre 2007 - Disclaimer

ORBIFLY MET'MAP TEAM :

Programmation & Développement : Alexandra Zaïnal
Conception & Développement : Baudouin d'Aumeries
Co-Programmation & Développement : Marc-Olivier Méhu
Soutien technique & logistique : Manuel Goepfert

Contact : metmap@orbifly.com




SOURCES & CREDITS :

   NOAA